Location: Da?d�wka
(50.2700°N, 19.1745°E)
Time: 12:56:56
(UTC+00:00)

Daily predictions for brighter satellites

Satellite Brightness Start Highest point End
(mag) Time Altitude Azimuth Time Altitude Azimuth Time Altitude Azimuth
Cosmos 2219 Rocket 3.1 15:10:17 10° SSE 15:15:02 29° ESE 15:19:49 10° NE
Tsikada Rocket 4.2 15:12:19 10° S 15:18:44 85° W 15:25:11 10° N
Cosmos 1844 Rocket 3.0 15:13:24 10° NNW 15:18:59 76° WSW 15:24:34 10° SSE
Cosmos 494 Rocket 4.1 15:16:30 10° S 15:21:41 61° ESE 15:26:53 10° NNE
Cosmos 1733 Rocket 3.9 15:20:09 10° N 15:23:58 29° ENE 15:27:48 10° SE
Cosmos 1269 Rocket 4.2 15:21:31 10° S 15:26:41 57° ESE 15:31:54 10° NNE
OPS 6432 4.5 15:24:00 10° NW 15:27:11 89° S 15:31:09 10° SE
Cosmos 1536 4.2 15:24:35 10° NNE 15:27:23 18° ENE 15:30:10 10° ESE
NOSS 2-2 (E) 4.1 15:24:27 10° WSW 15:28:06 48° NW 15:32:31 10° NE
Cosmos 2237 4.3 15:23:19 10° SSW 15:29:04 87° ESE 15:34:51 10° NNE
SMAP 3.3 15:25:01 10° SE 15:29:27 46° ENE 15:33:55 10° N
Cosmos 1602 3.7 15:25:58 10° N 15:29:51 78° E 15:33:44 10° SSE
ATLAS 2AS CENTAUR R/B 3.2 15:22:45 10° SW 15:30:45 83° SE 15:38:47 10° NE
Cosmos 1869 Rocket 3.6 15:26:34 10° N 15:31:01 88° WSW 15:35:27 10° S
Cosmos 1500 4.1 15:28:31 10° NNE 15:31:44 26° ENE 15:34:56 10° SE
Cosmos 1943 Rocket 4.0 15:29:36 10° N 15:31:57 12° NNE 15:34:17 10° NE
Cosmos 1340 2.6 15:29:46 10° NNW 15:33:35 85° E 15:37:21 10° SSE
CZ-4 R/B 2.9 15:33:45 10° E 15:35:57 15° ENE 15:38:10 10° NNE
ALOS 3.3 15:32:22 10° S 15:36:54 51° W 15:41:29 10° NNW
COSMOS 2428 3.2 15:34:49 10° S 15:40:08 43° ESE 15:45:30 10° NE
Cosmos 304 Rocket 3.7 15:35:21 10° NNW 15:40:11 78° ENE 15:45:00 10° SSE
H-2A R/B 2.9 15:37:24 10° SE 15:40:57 45° ENE 15:44:30 10° N
Meteor 1-5 Rocket 4.3 15:36:10 10° N 15:41:41 53° ENE 15:46:59 10° SSE
Cosmos 1302 Rocket 4.0 15:38:07 10° NNW 15:43:26 85° ENE 15:48:41 10° SSE
Lacrosse 5 rocket 3.0 15:40:17 10° S 15:43:29 21° SE 15:46:07 12° E
BREEZE-M DEB (TANK) 3.8 15:45:19 10° W 15:48:23 32° SSW 15:50:25 10° SE
IRS-1C Rocket 4.0 15:44:14 10° SSE 15:49:30 78° ENE 15:54:48 10° NNW
YAOGAN 6 3.8 15:47:10 10° ESE 15:49:51 20° ENE 15:52:34 10° NNE
Cosmos 2251 Rocket 4.4 15:47:17 10° SSE 15:51:49 29° E 15:55:43 13° NE
SL-4 R/B 2.6 15:49:05 10° SW 15:52:35 40° SSE 15:55:27 16° E
SeaSat 1 4.1 15:51:27 14° NE 15:53:04 16° NNE 15:55:55 10° N
Okean O Rocket 3.0 15:50:05 10° S 15:54:12 42° W 15:58:21 10° NNW
Helios 1A Rocket 4.4 15:51:04 10° S 15:54:57 40° W 15:58:51 10° NNW
COSMOS 2455 3.8 15:49:48 10° WSW 15:55:29 42° NW 16:01:13 10° NNE
Cosmos 2333 4.2 15:53:24 10° SSW 15:59:07 83° ESE 16:04:56 10° NNE
Cosmos 921 Rocket 4.4 15:56:30 10° N 15:59:20 17° NE 15:59:34 17° NE
NOSS 2 (A) 4.2 15:56:50 10° NW 15:59:23 73° SW 16:01:42 10° SE
Cosmos 1782 3.5 15:58:03 10° SSW 16:01:59 56° WNW 16:05:55 10° N
CENTAUR R/B 4.3 15:54:23 10° NW 16:02:00 48° WSW 16:10:11 10° S
USA 215 3.3 15:56:48 14° ENE 16:02:36 78° NNW 16:09:08 10° WSW
Cosmos 1862 Rocket 4.0 15:58:42 10° SSE 16:02:44 39° E 16:06:51 10° NNE
ERBS 4.3 16:01:37 10° WNW 16:04:36 30° SW 16:07:34 10° SSE
Cosmos 2322 3.8 15:58:56 10° SSW 16:04:39 81° WNW 16:10:24 10° NNE
Cosmos 2279 Rocket 4.2 15:59:37 10° NNW 16:05:53 77° W 16:12:08 10° S
Okean-O 2.6 16:02:16 10° SSE 16:06:37 58° ENE 16:10:59 10° N
Meteor 2-6 Rocket 4.0 16:01:28 10° S 16:06:51 78° E 16:12:17 10° NNE
Cosmos 1346 Rocket 4.0 16:03:07 10° NNW 16:06:55 45° W 16:10:43 10° SSW
Cosmos 1315 Rocket 3.1 16:03:01 10° SSW 16:06:58 67° WNW 16:11:01 10° N
Genesis I 4.3 16:05:44 10° NNW 16:09:02 25° NNE 16:10:05 22° ENE
Cosmos 2278 Rocket 2.1 16:06:40 10° NNW 16:12:22 76° ENE 16:18:02 10° SE
AQUARIUS 4.3 16:11:01 10° S 16:15:31 77° WSW 16:20:03 10° NNW
Envisat 2.9 16:10:43 10° SSE 16:15:44 64° ENE 16:20:47 10° N
Cosmos 1666 3.3 16:13:10 10° N 16:16:36 33° ENE 16:20:00 10° SE
Meteor 1-10 Rocket 4.1 16:12:39 10° S 16:18:12 84° E 16:23:50 10° NNE
Cosmos 1707 Rocket 3.9 16:14:20 10° SSW 16:18:46 68° WNW 16:23:15 10° N
Cosmos 2360 Rocket 3.2 16:15:50 10° WSW 16:21:12 42° NW 16:26:37 10° NNE
STARLINK-67 2.5 16:23:14 10° WSW 16:26:00 73° NNW 16:26:28 54° NE
Cosmos 2369 Rocket 3.6 16:23:13 10° N 16:27:04 18° NE 16:27:19 18° NE
SL-16 R/B 3.7 16:25:22 10° SE 16:28:00 17° ESE 16:28:00 17° ESE
Nadezhda 4 Rocket 4.0 16:22:47 10° S 16:29:04 69° E 16:35:22 10° NNE
Cosmos 1980 Rocket 4.5 16:26:36 10° NW 16:29:07 13° NNW 16:31:37 10° N
Cosmos 1992 Rocket 3.9 16:24:00 10° NNW 16:29:16 83° ENE 16:34:30 10° SSE
Meteor 1-11 Rocket 4.0 16:24:40 10° NNW 16:30:41 81° W 16:36:38 10° S
Cosmos 2333 Rocket 2.3 16:25:54 10° SSW 16:31:39 82° WNW 16:36:30 15° NNE
Cosmos 1908 Rocket 3.5 16:30:48 10° N 16:35:12 58° ENE 16:39:30 10° SSE
COSMO-SKYMED 1 2.8 16:34:55 29° NE 16:36:43 46° E 16:40:53 10° S
Meteor 1-27 Rocket 3.7 16:33:23 10° S 16:39:05 79° E 16:44:58 10° NNE
RESURS DK-1 2.3 16:35:08 10° SSW 16:39:16 86° WNW 16:41:15 30° NNE
Shenzhou-11 Module 4.0 16:37:39 10° SW 16:39:33 17° S 16:39:51 17° SSE
Cosmos 2237 Rocket 2.4 16:35:49 10° S 16:41:19 52° ESE 16:43:57 29° NE
ISS -2.7 16:39:26 10° W 16:42:39 43° SSW 16:44:04 27° SSE
STARLINK-46 3.2 16:41:02 10° SW 16:43:16 45° S 16:43:16 45° S
NOSS 3-4 (A) 3.9 16:37:57 10° WSW 16:43:58 59° NW 16:48:17 21° NE
NOSS 3-4 (C) 3.9 16:38:04 10° WSW 16:44:04 59° NW 16:48:23 21° NE
Cosmos 2322 Rocket 4.2 16:42:16 10° W 16:46:25 20° NW 16:50:35 10° N
Cosmos 1812 2.9 16:42:36 10° SSW 16:46:28 71° WNW 16:49:28 16° N
YAOGAN 1 2.5 16:44:05 10° SSE 16:48:19 58° ENE 16:52:36 10° N
COBE Rocket 4.3 16:44:13 10° N 16:48:48 59° WNW 16:53:22 10° SSW
Exosat Rocket 3.4 16:44:58 10° SSW 16:50:18 87° ESE 16:53:10 26° NNE
Cosmos 1900 4.3 16:46:52 10° NW 16:51:47 80° SW 16:56:29 11° SSE
Cosmos 2026 Rocket 4.1 16:46:04 10° SSE 16:51:51 48° E 16:56:14 17° NNE
NOSS 5 (C) 4.3 16:48:58 10° NW 16:52:07 74° NE 16:52:13 73° ENE
SL-16 R/B 4.3 16:48:52 10° WNW 16:52:41 18° NNW 16:56:30 10° N
Cosmos 2219 Rocket 2.7 16:53:11 10° SW 16:58:41 56° NW 17:02:43 19° NNE
Ariane Rocket 3.9 17:00:26 31° NNE 17:00:26 31° NNE 17:03:36 10° N
SKYMED 3 4.4 16:59:22 39° NNE 17:00:56 79° ESE 17:05:16 10° S
BREEZE-M R/B 2.4 16:56:10 10° W 17:01:10 84° S 17:01:16 82° SE
Cosmos 1536 3.7 17:00:12 10° NNW 17:04:08 50° W 17:08:00 10° S
Okean 1-7 3.7 17:02:22 10° S 17:05:17 39° SSE 17:05:17 39° SSE
CZ-4 R/B 1.6 17:06:39 10° S 17:10:33 66° WSW 17:14:25 10° NNW
Cosmos 1980 3.6 17:05:54 10° SSW 17:11:33 88° ESE 17:13:45 39° NNE
Cosmos 2297 3.6 17:06:57 10° NNW 17:12:41 73° ENE 17:14:46 40° SE
Cosmos 1627 Rocket 4.3 17:08:37 10° S 17:14:41 74° E 17:20:17 13° NNE
Cosmos 1943 Rocket 3.1 17:12:19 10° NNW 17:16:13 32° NNE 17:16:13 32° NNE
CSL-04 Rocket 3.7 17:16:48 10° S 17:22:04 75° WSW 17:27:24 10° NNW
Lacrosse 5 rocket 1.5 17:18:02 10° WSW 17:21:46 68° WSW 17:21:46 68° WSW
ATLAS 2AS CENTAUR R/B 3.9 17:14:58 10° W 17:22:33 43° NNW 17:26:45 25° NNE
YAOGAN 6 4.2 17:19:54 10° SSW 17:23:10 35° W 17:26:29 10° NNW
COSMOS 2428 3.8 17:19:08 10° WSW 17:24:28 40° NW 17:27:49 21° N
SKYMED 2 4.0 17:23:37 41° NNW 17:24:54 62° WNW 17:29:12 10° SSW
Cosmos 2195 Rocket 4.5 17:21:53 10° S 17:28:05 84° W 17:34:26 10° N
Cosmos 1782 Rocket 3.8 17:25:04 10° NNW 17:35:19 - S 17:28:57 64° NW
SeaSat 1 3.2 17:31:15 39° N 17:31:15 39° N 17:34:34 10° NNW
SL-4 R/B 2.8 17:28:10 10° W 17:31:03 49° W 17:31:03 49° W
Cosmos 1092 Rocket 4.3 17:27:21 10° SSW 17:33:39 67° WNW 17:39:55 10° N
Cosmos 2251 Rocket 4.3 17:28:44 10° SW 17:33:53 49° WNW 17:36:13 29° N
NOSS 0 Rocket 4.3 17:28:43 10° SW 17:34:53 63° NW 17:37:30 35° NNE
Cosmos 921 Rocket 4.2 17:33:52 10° NNW 17:36:26 35° NW 17:36:26 35° NW
Cosmos 1703 Rocket 4.2 17:38:35 10° SSW 17:42:45 56° W 17:42:45 56° W
USA 215 3.6 17:44:09 46° NNE 17:45:17 51° N 17:51:33 10° W
Cosmos 2344 4.3 17:48:07 10° NW 17:57:03 61° NE 17:59:09 54° ENE
IRS-1A Rocket 4.5 18:00:57 71° NW 18:00:57 71° NW 18:06:17 10° NNW
S3M 4.2 17:55:10 10° N 18:00:12 60° NNW 18:00:12 60° NNW
Cosmos 1867 4.3 17:56:24 10° NW 18:00:19 48° NW 18:00:19 48° NW
Cosmos 2369 Rocket 3.7 18:06:35 10° NNW 18:09:07 27° NNW 18:09:07 27° NNW
SL-16 R/B 3.3 18:06:41 10° SSW 18:09:56 36° SSW 18:09:56 36° SSW
Cosmos 2333 Rocket 4.2 18:12:25 10° W 18:16:50 22° NW 18:18:31 20° NNW
NOSS 3-1 (C) 4.2 18:17:09 10° NW 18:22:54 56° N 18:22:54 56° N
Cosmos 2237 Rocket 3.5 18:20:25 10° WSW 18:25:37 35° NW 18:25:48 35° NW
USA 229 DEB 4.3 18:24:11 10° NW 18:29:29 52° NNW 18:29:29 52° NNW
USA 229 4.3 18:24:18 10° NW 18:29:34 51° NNW 18:29:34 51° NNW
Cosmos 2219 Rocket 4.5 18:40:26 10° WNW 18:43:57 17° NNW 18:44:26 16° NNW
Cosmos 1943 Rocket 4.4 18:56:01 10° NW 18:57:45 20° NW 18:57:45 20° NW
ATLAS 2AS CENTAUR R/B 4.4 19:08:41 10° WNW 19:14:11 29° NNW 19:14:11 29° NNW
